Torna al catalogo

STARLINK-6205

AttivoComunicazioniVLEO
NORAD 56898·PAYLOAD·🇺🇸 United States

Lanciato Jun 12, 2023 da Cape Canaveral Space Force Station

Loading…

Prossimi Passaggi (prossime 24 ore)

TLE

AggiornatoSource: CelesTrak SupGP

Epoca: Sep 14, 2026, 14:39 UTC

1 56898C 23083Y   26257.61090278 -.00004305  00000+0 -15587-3 0  2576
2 56898  42.9999  95.1079 0001656 251.3837 354.2463 15.27590577    14

Traccia STARLINK-6205 in tempo reale con AllMySat

Download on the App Store